THORAD AGENA D DEB, 4709

Orbit data source: Space-Track

THORAD AGENA D DEB, 4709 is space debris in SSO originally from a launch on Wed, 08 Apr 1970 UTC launched from the Air Force Western Test Range (AFWTR). Debris objects in space refer to the collection of defunct objects orbiting the Earth. Examples of debris include non-operational satellites, rocket bodies, and fragments generated from explosions, collisions, or faulty payload assembly.

Loading next visibility...
Identifier
4709, 1970-025BX
Orbit
SSO
Country
Flag of USUS
Related business
Manufacturer
Unknown
Mission
Spacecraft
Bus & Motor
Unknown
Mass
Unknown
Launch date (UTC)
1970-04-08 (56 years ago)
Launch vehicle
Unknown
Launch site
Air Force Western Test Range (AFWTR)
Object type
Payload
Rocket body
Debris
Shape & HBR
Unknown shape, 0.1 m
Radar Cross Section
Small (<0.1 m²)

Expand to show TLE details & history
Last TLE update: 7 hours ago

TLE from 7 hours ago
0 THORAD AGENA D DEB
1  4709U 70025BX  25300.17492259  .00005438  00000-0  11473-2 0  9991
2  4709 100.0194 175.9184 0074675  87.1750 273.7986 14.58199539869211
Epoch: 2025-10-27T04:11Z
TLE epoch observation values (Epoch: 2025-10-27T04:11:53.311Z)
Latitude
-0.00011°
Longitude
77.16575°
Altitude
698.806 km
Speed
7.508 km/s
True Right ascension
11h 43m 40s
True Declination
0° 00' 00"
Sunlit
Object was in daylight at epoch
Visualization orbit readout
Latitude
Unknown
Longitude
Unknown
Altitude
Unknown
Speed
Unknown
Apparent Right ascension
Unknown
Apparent Declination
Unknown
Sunlit
N/A
Visualization observer readout
Local Sidereal Time
06:07:01
Azimuth
Unknown
Elevation
Unknown
Doppler factor
Unknown
Orbital elements
Apogee altitude
748.997 km
Perigee altitude
643.342 km
Semi-major axis
7,074.306 km
Eccentricity
0.00747
Inclination
100.0194°
RAAN
175.9184°
Arg. of periapsis
87.175°
True anomaly
272.94427°
Mean anomaly
273.7986°
Eccentric anomaly
273.37148°
Mean motion
3.64769 °/min
Orbital period
98.69 mins
BSTAR
0.0011473
Loading maneuver chart data...
Computing Atmospheric mass density...

Documentation

Showing up to 5 results
|